Regional Weather Roundup
Issued by NWS

Home | Current Version | Previous Version | Text Only | Print | Product List | Glossary Off
Versions: 1 2 3 4 5 6 7 8 9 10 11 12 13 14 15 16 17 18 19 20 21 22 23 24 25 26 27

000
ASUS45 KTFX 252010
RWRMT
MONTANA REGIONAL WEATHER ROUNDUP
NATIONAL WEATHER SERVICE GREAT FALLS MT
200 PM MDT MON JUL 25 2016

NOTE: "FAIR" INDICATES FEW OR NO CLOUDS BELOW 12000 FEET WITH NO
SIGNIFICANT WEATHER AND/OR OBSTRUCTIONS TO VISIBILITY.

MTZ001>007-043-252100-
WEST OF THE DIVIDE

CITY           SKY/WX    TMP DP  RH WIND       PRES   REMARKS
KALISPELL      SUNNY     84  52  33 NE8       30.06F
MISSOULA       SUNNY     86  44  23 NE6       30.06F
BUTTE          SUNNY     84  34  16 NE6       30.16F
MULLAN PASS    SUNNY     70  42  36 VRB3      30.24F
ANACONDA         N/A     82  43  24 NE7       30.12F
DEER LODGE       N/A     84  39  20 NW3       30.14F
EUREKA           N/A     84  48  28 E6        30.05F
HAMILTON         N/A     81  46  30 N3        30.08F
LIBBY            N/A     86  45  23 SW5       30.04F
PLAINS           N/A     90  48  23 CALM      30.03
RONAN            N/A     82  50  32 N1        30.12S
$$

MTZ008-052>055-252100-
SOUTHWEST MONTANA

CITY           SKY/WX    TMP DP  RH WIND       PRES   REMARKS
BOZEMAN        SUNNY     87  39  18 NW8       30.09F
DILLON         SUNNY     83  38  20 CALM      30.12F
W YELLOWSTONE  SUNNY     82  21  10 SW14G26   30.24F
ENNIS          SUNNY     86  28  12 VRB7G13   30.16F
$$

MTZ009-010-012-014-046-048-049-054-252100-
EAST SLOPES AND CENTRAL MONTANA

CITY           SKY/WX    TMP DP  RH WIND       PRES   REMARKS
CUT BANK       SUNNY     80  51  36 N12G20    30.13S
GREAT FALLS    SUNNY     86  43  22 VRB3      30.08F
MALMSTROM AFB  SUNNY     84  44  24 SW3       30.07F
HELENA         SUNNY     88  43  20 MISG      30.05F
CHOTEAU          N/A     82  46  28 VRB6      30.13F
CONRAD           N/A     84  53  34 W8        30.12F
$$

MTZ011-013-016-021-045-047-050-051-252100-
NORTH CENTRAL MONTANA

CITY           SKY/WX    TMP DP  RH WIND       PRES   REMARKS
HAVRE            N/A    N/A N/A N/A MISG      30.01F
LEWISTOWN      SUNNY     83  51  33 N8        30.11F
N BAR RANCH      N/A     84  45  24 NW8       30.13S
CHINOOK          N/A     88  52  29 SW7       29.99F
$$

MTZ017>020-022>027-061-062-252100-
NORTHEAST MONTANA

CITY           SKY/WX    TMP DP  RH WIND       PRES   REMARKS
GLASGOW        SUNNY     92  49  22 VRB7      29.97F
JORDAN           N/A     94  44  17 N5        29.98F HX  90
SIDNEY         SUNNY     90  56  31 E9        29.96F
WOLF POINT     SUNNY     93  46  19 NE8       29.97S
PLENTYWOOD       N/A     88  52  29 CALM      29.99F
POPLAR           N/A     90  48  24 N10       29.97F
$$

MTZ028>42-056>058-252100-
SOUTHCENTRAL AND SOUTHEAST MONTANA

CITY           SKY/WX    TMP DP  RH WIND       PRES   REMARKS
BAKER          SUNNY     94  40  15 S6        30.00F HX  90
BILLINGS       MOSUNNY   92  39  15 E6        30.02F
LIVINGSTON     SUNNY     90  32  12 CALM      30.06F
MILES CITY     SUNNY     96  38  13 E8        29.96F HX  91
FORSYTH          N/A     93  39  15 CALM      29.96F
LAUREL           N/A     92  44  18 E5        30.01F
ROUNDUP          N/A     89  44  20 N7        29.96F
$$

REGIONAL REPORTS...DAKOTAS

CITY           SKY/WX    TMP DP  RH WIND       PRES   REMARKS
WILLISTON      SUNNY     91  52  26 VRB5G18   29.97S
MINOT          SUNNY     89  63  41 SE5       29.95S HX  90
DICKINSON      SUNNY     91  47  21 VRB3      29.97F
BEACH            N/A     91  45  19 NE7       30.02F
CROSBY           N/A     84  57  39 CALM      30.00F
BISMARCK       SUNNY     90  65  43 SW6       29.95F HX  92
GRAND FORKS    SUNNY     87  66  49 S13       29.95F
FARGO          SUNNY     89  61  38 SW13G23   29.97F
BUFFALO SD       N/A     99  42  14 MISG      29.92F HX  94
RAPID CITY     SUNNY     89  55  31 S21G26    30.03F
$$

REGIONAL REPORTS...WYOMING/IDAHO/WASHINGTON

CITY           SKY/WX    TMP DP  RH WIND       PRES   REMARKS
GILLETTE       SUNNY     92  33  12 SE10      30.06F
SHERIDAN       SUNNY     97  36  12 NE8       30.02F HX  92
BUFFALO WY     SUNNY     94  33  11 SE10G21   30.10F
CODY           SUNNY     88  37  16 N10G16    30.10F
YELLOWSTONE LA   N/A     78  18  10 MISG      30.35F
IDAHO FALLS    SUNNY     90  30  11 VRB6      30.11F
SALMON         SUNNY     86  45  23 N8        30.02F
BOISE          SUNNY     92  40  16 VRB6      29.99F
SPOKANE        MOSUNNY   86  46  24 VRB3      30.04F
$$

REGIONAL REPORTS...ALBERTA

CITY           SKY/WX    TMP DP  RH WIND       PRES   REMARKS
EDMONTON       MOSUNNY   73  46  38 NE3       30.06F
CALGARY        MOSUNNY   73  52  46 S13G22    30.12F
LETHBRIDGE     MOSUNNY   75  57  53 CALM      30.11F
MEDICINE HAT   MOSUNNY   82  57  42 N13       30.04F
MILK RIVER       N/A     77  57  50 N12G18      N/A
ONEFOUR          N/A     86  48  26 W9          N/A
$$

REGIONAL REPORTS...SASKATCHEWAN

CITY           SKY/WX    TMP DP  RH WIND       PRES   REMARKS
SWIFT CURRENT  SUNNY     77  61  57 N8        30.05S
REGINA         MOSUNNY   81  63  54 NW8       29.99S
SASKATOON      MOSUNNY   77  54  44 NW15G22   30.03S
CYPRESS HILLS    N/A     72  55  56 NE7         N/A
VAL MARIE        N/A     84  50  30 NW5         N/A
ROCKGLEN         N/A     82  52  34 NE6         N/A
ASSINIBOIA       N/A     73  52  46 SW5         N/A
$$




USA.gov is the U.S. government's official web portal to all federal, state and local government web resources and services.